• In Uzbekistan
  • List of Countries
  • For 7 days
  • Water Temperature
  • Satellite Maps
  • Weather Map
  • Weather Widgets
  • user-avatar
    Login

    Hourly Weather Quito

    Today, 29 April, Saturday

    Time Temperature Precipitation Wind Pressure Humidity
    00:00 +14°C° 0 mm 1 mps 623 mmHg 88%
    01:00 +13°C° 0 mm 1 mps 623 mmHg 92%
    02:00 +13°C° 0 mm 1 mps 623 mmHg 93%
    03:00 +13°C° 0 mm 1 mps 623 mmHg 94%
    04:00 +13°C° 0 mm 1 mps 623 mmHg 94%
    05:00 +13°C° 0 mm 1 mps 623 mmHg 92%
    06:00 +14°C° 0 mm 2 mps 624 mmHg 90%
    07:00 +15°C° 0 mm 2 mps 625 mmHg 85%
    08:00 +18°C° 0 mm 3 mps 626 mmHg 75%
    09:00 +20°C° 0 mm 3 mps 626 mmHg 65%
    10:00 +22°C° 0 mm 4 mps 627 mmHg 55%
    11:00 +23°C° 0 mm 4 mps 627 mmHg 50%
    12:00 +25°C° 0 mm 3 mps 626 mmHg 46%
    13:00 +26°C° 0 mm 3 mps 626 mmHg 42%
    14:00 +26°C° 0 mm 3 mps 626 mmHg 43%
    15:00 +26°C° 0 mm 3 mps 625 mmHg 44%
    16:00 +25°C° 0 mm 3 mps 625 mmHg 45%
    17:00 +23°C° 0 mm 2 mps 624 mmHg 54%
    18:00 +19°C° 0 mm 2 mps 624 mmHg 64%
    19:00 +16°C° 0 mm 2 mps 623 mmHg 73%
    20:00 +16°C° 0 mm 2 mps 623 mmHg 77%
    21:00 +15°C° 0 mm 2 mps 623 mmHg 81%
    22:00 +14°C° 0 mm 2 mps 623 mmHg 85%
    23:00 +13°C° 0 mm 1 mps 623 mmHg 86%

    Tomorrow, 30 April, Sunday

    Time Temperature Precipitation Wind Pressure Humidity
    00:00 +13°C° 0 mm 1 mps 623 mmHg 88%
    01:00 +12°C° 0 mm 1 mps 623 mmHg 89%
    02:00 +12°C° 0 mm 1 mps 623 mmHg 90%
    03:00 +12°C° 0 mm 1 mps 622 mmHg 91%
    04:00 +12°C° 0 mm 1 mps 622 mmHg 92%
    05:00 +12°C° 0 mm 1 mps 623 mmHg 89%
    06:00 +13°C° 0 mm 1 mps 623 mmHg 86%
    07:00 +14°C° 0 mm 2 mps 624 mmHg 84%
    08:00 +16°C° 0 mm 2 mps 625 mmHg 72%
    09:00 +19°C° 0 mm 3 mps 626 mmHg 60%
    10:00 +22°C° 0 mm 4 mps 627 mmHg 48%
    11:00 +24°C° 0 mm 3 mps 626 mmHg 44%
    12:00 +25°C° 0 mm 3 mps 626 mmHg 41%
    13:00 +26°C° 0 mm 3 mps 626 mmHg 37%
    14:00 +25°C° 0 mm 3 mps 625 mmHg 39%
    15:00 +25°C° 0 mm 3 mps 625 mmHg 40%
    16:00 +25°C° 0 mm 3 mps 624 mmHg 42%
    17:00 +21°C° 0 mm 2 mps 623 mmHg 51%
    18:00 +18°C° 0 mm 2 mps 623 mmHg 61%
    19:00 +15°C° 0 mm 2 mps 622 mmHg 70%
    20:00 +15°C° 0 mm 2 mps 623 mmHg 73%
    21:00 +14°C° 0 mm 2 mps 623 mmHg 75%
    22:00 +14°C° 0 mm 1 mps 623 mmHg 78%
    23:00 +13°C° 0 mm 1 mps 623 mmHg 82%

    Day after tomorrow, 1 May, Monday

    Time Temperature Precipitation Wind Pressure Humidity
    00:00 +12°C° 0 mm 1 mps 622 mmHg 86%
    01:00 +11°C° 0 mm 1 mps 622 mmHg 90%
    02:00 +11°C° 0 mm 1 mps 622 mmHg 90%
    03:00 +11°C° 0 mm 1 mps 622 mmHg 90%
    04:00 +10°C° 0 mm 1 mps 621 mmHg 91%
    05:00 +11°C° 0 mm 1 mps 622 mmHg 88%
    06:00 +12°C° 0 mm 1 mps 623 mmHg 85%
    07:00 +13°C° 0 mm 1 mps 624 mmHg 82%
    08:00 +16°C° 0 mm 2 mps 625 mmHg 70%
    09:00 +18°C° 0 mm 2 mps 625 mmHg 59%
    10:00 +21°C° 0 mm 3 mps 626 mmHg 47%
    11:00 +22°C° 0 mm 3 mps 626 mmHg 43%
    12:00 +24°C° 0 mm 3 mps 625 mmHg 39%
    13:00 +25°C° 0 mm 3 mps 625 mmHg 35%
    14:00 +25°C° 0 mm 2 mps 625 mmHg 37%
    15:00 +25°C° 0 mm 2 mps 624 mmHg 38%
    16:00 +24°C° 0 mm 2 mps 624 mmHg 39%
    17:00 +20°C° 0 mm 2 mps 623 mmHg 49%
    18:00 +17°C° 0 mm 2 mps 622 mmHg 60%
    19:00 +14°C° 0 mm 1 mps 621 mmHg 70%
    20:00 +13°C° 0 mm 1 mps 622 mmHg 70%
    21:00 +13°C° 0 mm 1 mps 622 mmHg 70%
    22:00 +12°C° 0 mm 1 mps 622 mmHg 70%
    23:00 +12°C° 0 mm 1 mps 622 mmHg 73%

    2 May, Tuesday

    Time Temperature Precipitation Wind Pressure Humidity
    00:00 +11°C° 0 mm 1 mps 622 mmHg 76%
    01:00 +11°C° 0 mm 1 mps 621 mmHg 78%
    02:00 +10°C° 0 mm 1 mps 621 mmHg 80%
    03:00 +10°C° 0 mm 1 mps 621 mmHg 82%
    04:00 +10°C° 0 mm 1 mps 621 mmHg 84%
    05:00 +11°C° 0 mm 1 mps 621 mmHg 82%
    06:00 +11°C° 0 mm 1 mps 622 mmHg 81%
    07:00 +12°C° 0 mm 2 mps 623 mmHg 80%
    08:00 +15°C° 0 mm 2 mps 624 mmHg 69%
    09:00 +18°C° 0 mm 3 mps 625 mmHg 59%
    10:00 +21°C° 0 mm 3 mps 626 mmHg 48%
    11:00 +22°C° 0 mm 3 mps 625 mmHg 43%
    12:00 +24°C° 0 mm 2 mps 625 mmHg 38%
    13:00 +25°C° 0 mm 2 mps 624 mmHg 34%
    14:00 +25°C° 0 mm 2 mps 624 mmHg 35%
    15:00 +25°C° 0 mm 2 mps 624 mmHg 35%
    16:00 +25°C° 0 mm 1 mps 623 mmHg 36%
    17:00 +21°C° 0 mm 1 mps 622 mmHg 45%
    18:00 +18°C° 0 mm 1 mps 622 mmHg 54%
    19:00 +14°C° 0 mm 1 mps 621 mmHg 63%
    20:00 +13°C° 0 mm 1 mps 621 mmHg 66%
    21:00 +12°C° 0 mm 1 mps 621 mmHg 69%
    22:00 +12°C° 0 mm 1 mps 621 mmHg 72%
    23:00 +12°C° 0 mm 1 mps 621 mmHg 74%

    3 May, Wednesday

    Time Temperature Precipitation Wind Pressure Humidity
    00:00 +11°C° 0 mm 1 mps 621 mmHg 75%
    01:00 +11°C° 0 mm 1 mps 621 mmHg 77%
    02:00 +10°C° 0 mm 1 mps 621 mmHg 79%
    03:00 +10°C° 0 mm 1 mps 621 mmHg 82%
    04:00 +10°C° 0 mm 1 mps 621 mmHg 85%
    05:00 +11°C° 0 mm 1 mps 622 mmHg 83%
    06:00 +12°C° 0 mm 2 mps 622 mmHg 81%
    07:00 +13°C° 0 mm 2 mps 623 mmHg 80%
    08:00 +15°C° 0 mm 2 mps 624 mmHg 69%
    09:00 +18°C° 0 mm 3 mps 625 mmHg 59%
    10:00 +21°C° 0 mm 3 mps 625 mmHg 49%
    11:00 +22°C° 0 mm 3 mps 625 mmHg 44%
    12:00 +25°C° 0 mm 2 mps 625 mmHg 39%
    13:00 +26°C° 0 mm 1 mps 624 mmHg 34%
    14:00 +26°C° 0 mm 1 mps 624 mmHg 35%
    15:00 +25°C° 0 mm 1 mps 624 mmHg 36%
    16:00 +25°C° 0 mm 1 mps 623 mmHg 37%
    17:00 +22°C° 0 mm 1 mps 623 mmHg 45%
    18:00 +19°C° 0 mm 1 mps 622 mmHg 54%
    19:00 +15°C° 0 mm 1 mps 621 mmHg 62%
    20:00 +15°C° 0 mm 1 mps 621 mmHg 62%
    21:00 +15°C° 0 mm 1 mps 622 mmHg 61%
    22:00 +14°C° 0 mm 1 mps 622 mmHg 61%
    23:00 +13°C° 0 mm 1 mps 622 mmHg 67%

    4 May, Thursday

    Time Temperature Precipitation Wind Pressure Humidity
    00:00 +13°C° 0 mm 1 mps 621 mmHg 73%
    01:00 +12°C° 0 mm 1 mps 621 mmHg 78%
    02:00 +11°C° 0 mm 1 mps 621 mmHg 81%
    03:00 +11°C° 0 mm 1 mps 621 mmHg 83%
    04:00 +10°C° 0 mm 1 mps 621 mmHg 86%
    05:00 +11°C° 0 mm 1 mps 621 mmHg 83%
    06:00 +12°C° 0 mm 1 mps 622 mmHg 80%
    07:00 +13°C° 0 mm 1 mps 623 mmHg 77%
    08:00 +16°C° 0 mm 2 mps 624 mmHg 67%
    09:00 +19°C° 0 mm 2 mps 625 mmHg 57%
    10:00 +22°C° 0 mm 3 mps 625 mmHg 47%
    11:00 +24°C° 0 mm 3 mps 625 mmHg 43%
    12:00 +25°C° 0 mm 2 mps 625 mmHg 38%
    13:00 +26°C° 0 mm 2 mps 624 mmHg 34%
    14:00 +26°C° 0 mm 2 mps 624 mmHg 35%
    15:00 +26°C° 0 mm 2 mps 624 mmHg 36%
    16:00 +25°C° 0 mm 2 mps 623 mmHg 38%
    17:00 +21°C° 0 mm 2 mps 622 mmHg 46%
    18:00 +18°C° 0 mm 2 mps 622 mmHg 54%
    19:00 +15°C° 0 mm 2 mps 621 mmHg 62%
    20:00 +14°C° 0 mm 2 mps 621 mmHg 65%
    21:00 +14°C° 0 mm 1 mps 621 mmHg 69%
    22:00 +13°C° 0 mm 1 mps 621 mmHg 73%
    23:00 +12°C° 0 mm 1 mps 621 mmHg 75%
    Show more